Location: Chrome
(40.5765°N, 74.2163°W)
Time: 22:17:21
(UTC+00:00)

YAOGAN 1 - Pass Details

Date: 06 December 2019
Orbit: 619 x 621 km, 98.0° (Epoch: 22 January)

Event Time Altitude Azimuth Distance (km) Brightness Sun altitude
Rises 22:50:55 0° 145° (SE) 2,884 5.8 -15.0°
Reaches altitude 10° 22:53:13 10° 136° (SE) 1,983 4.9 -15.4°
Maximum altitude 22:57:09 36° 71° (ENE) 997 3.1 -16.1°
Drops below altitude 10° 23:01:07 10° 5° (N) 1,997 5.0 -16.8°
Sets 23:03:26 0° 357° (N) 2,907 5.9 -17.3°
